CAPE
0 0 0 5 1 0 0 0 0 0 0 0 0 0 0 0 0 0 0 0 0 0 0 0 0 0 0 0 0 0 0 0 0 0 0 0 0 0 0 0 0 0 0 0 0 0 0 0 0 0 0 0 0 0
0 0 6 3 0 0 0 0 0 0 0 0 0 0 0 0 0 0 0 0 0 0 0 0 0 0 0 0 0 0 0 0 0 0 0 0 0 0 0 0 0 0 0 0 0 0 0 0 0 0 0 0 0 0
0 0 0 0 0 0 0 0 0 0 0 0 0 0 0 0 0 0 0 0 0 0 0 0 0 0 0 0 0 0 0 0 0 0 0 0 0 0 0 0 0 0 0 0 0 0 0 0 0 0 0 0 0 0
0 0 0 0 0 0 0 0 0 0 0 0 0 0 0 0 0 0 0 0 0 0 0 0 0 0 0 0 0 0 0 0 0 0 0 0 0 0 0 0 0 0 0 0 0 0 0 0 0 0 0 0 0 0
0 0 0 0 0 0 0 0 0 0 0 0 0 0 0 0 0 0 0 0 0 0 0 0 0 0 0 0 0 0 0 0 0 0 0 0 0 0 0 0 0 0 0 0 0 0 0 0 0 0 0 0 0 0
0 0 0 0 0 0 0 0 0 0 0 0 0 0 0 0 0 0 0 0 0 0 0 0 0 0 0 0 0 0 0 0 0 0 0 0 0 0 0 0 0 0 0 0 0 0 0 0 0 0 0 0 0 0
0 0 0 0 0 0 0 0 0 0 0 0 0 0 0 0 0 0 0 0 0 0 0 0 0 0 0 0 0 0 0 0 0 0 0 0 0 0 0 0 0 0 0 0 0 0 0 0 0 0 0 0 0 1
0 0 0 0 0 0 0 0 0 0 0 0 0 0 0 0 0 0 0 0 0 0 0 0 0 0 0 0 0 0 0 0 0 0 0 0 0 0 0 0 0 0 0 0 0 0 0 0 0 0 0 0 1 1
0 0 0 0 0 0 0 0 0 0 0 0 0 0 0 0 0 0 0 0 0 0 0 0 0 0 0 0 0 0 0 0 0 0 0 0 0 0 0 0 0 0 0 0 0 0 0 0 0 0 0 0 0 0
0 0 0 0 0 0 0 0 0 0 0 0 0 0 0 0 0 0 0 0 0 0 0 0 0 0 0 0 0 0 0 0 0 0 0 0 0 0 0 0 0 0 0 0 0 0 0 0 0 0 0 0 0 0
0 0 0 0 0 0 0 0 0 0 0 0 0 0 0 0 0 1 0 0 0 0 0 0 0 0 0 0 0 0 0 0 0 0 0 0 0 0 0 0 0 0 0 0 0 0 0 0 0 0 0 0 0 0
0 0 0 0 0 0 0 0 0 0 0 0 0 0 0 0 0 0 0 0 0 0 0 0 0 0 4 0 0 0 0 0 0 0 0 0 0 0 0 0 0 0 0 0 0 0 0 0 0 0 0 0 0 0
4 0 0 0 0 0 0 0 0 0 0 0 0 0 0 0 0 0 0 0 0 0 0 1 3 0 0 1 0 0 0 0 0 3 1 0 0 0 1 3 1 2 0 0 0 0 0 0 0 0 0 0 0 0
4 4 4 0 0 0 0 0 0 0 0 0 0 0 0 0 0 0 0 0 0 0 0 0 0 0 0 0 0 0 0 0 1 0 0 0 0 0 0 5 1 0 2 1 2 0 0 0 0 0 0 0 0 0
7 8 8 0 0 0 0 0 0 0 0 0 0 0 0 0 0 0 0 0 1 0 0 0 0 0 0 0 0 0 0 0 0 0 0 0 0 0 0 4 2 1 2 2 0 1 0 0 0 0 0 0 0 0
1 0 1 0 1 0 0 0 0 0 0 0 0 0 0 0 0 0 0 0 0 0 0 0 0 0 0 0 0 0 0 0 0 0 0 0 0 0 0 3 3 2 1 2 0 0 0 0 0 0 0 0 0 0
0 0 0 4 3 5 0 0 0 0 0 0 0 0 0 0 0 0 0 0 10 0 0 0 0 0 0 0 2 0 0 0 0 0 0 0 0 0 1 2 3 1 2 1 1 0 0 0 0 0 1 0 0 0
0 2 2 2 3 10 1 0 0 0 0 0 0 0 0 0 0 0 0 0 3 7 1 1 1 0 0 0 0 0 0 0 0 0 0 0 0 0 0 0 1 2 1 0 0 0 0 0 0 0 0 0 0 0
0 0 12 26 0 0 0 0 0 0 0 0 0 0 0 0 0 0 0 0 0 1 3 5 4 0 0 0 0 0 0 0 0 0 0 0 0 0 0 0 0 0 1 1 1 1 0 0 0 0 0 0 0 0
0 0 4 0 0 0 0 0 0 0 1 0 0 0 0 0 0 0 0 0 0 0 0 0 0 0 0 0 0 0 0 0 0 0 0 0 0 0 0 1 1 0 0 0 0 0 0 0 0 0 0 0 0 0
0 0 0 0 0 0 0 0 0 0 0 0 0 0 0 0 0 0 0 0 0 0 0 0 0 0 0 0 0 0 0 0 0 0 0 0 0 0 0 0 0 0 0 0 0 0 0 0 0 0 0 0 0 0
0 6 4 3 0 0 0 0 0 0 0 0 0 0 0 0 0 0 0 0 0 0 0 0 0 0 0 0 0 2 4 7 1 0 0 0 0 0 0 0 0 0 0 0 0 0 0 0 0 0 0 0 0 0
0 0 0 0 0 0 0 0 0 0 0 0 0 2 1 3 0 0 0 0 0 0 0 0 0 0 0 0 0 1 13 12 0 0 0 0 0 0 0 0 0 0 0 0 0 0 0 0 0 0 0 0 0 0
0 0 0 0 0 0 0 0 0 0 0 0 0 0 0 0 0 0 0 0 0 0 0 0 0 0 0 0 0 0 0 0 0 0 0 0 0 0 0 0 0 0 0 0 0 0 0 0 0 0 0 0 0 0
0 0 0 0 0 4 0 0 0 0 0 1 0 0 0 4 0 0 0 0 0 0 0 0 0 0 0 0 0 0 0 0 0 0 0 0 0 0 0 0 0 0 0 0 0 0 0 0 0 0 0 0 0 0
0 0 0 0 0 0 0 0 0 0 0 0 0 0 0 0 0 0 0 0 0 13 4 0 0 0 0 0 0 0 0 0 0 0 0 0 0 0 0 0 0 0 0 0 0 0 0 0 0 0 0 0 0 0
0 0 0 0 0 0 0 0 1 0 0 0 0 0 0 0 0 0 0 3 2 6 0 0 0 0 0 0 0 0 0 0 0 0 0 0 0 0 0 0 0 0 0 0 0 0 0 0 0 0 0 0 0 0
0 0 0 0 0 0 0 0 0 0 0 0 0 0 0 0 0 0 0 0 0 0 0 0 0 0 0 0 0 0 0 0 0 0 0 0 0 0 0 0 0 0 0 0 0 0 0 0 0 0 0 0 0 0
0 0 0 0 0 0 0 0 0 0 0 0 0 7 0 0 0 3 4 0 0 0 0 0 0 0 0 0 0 0 0 0 0 0 0 0 0 0 0 0 0 0 0 0 0 0 0 0 0 0 0 0 0 0
0 0 0 0 0 0 0 0 0 0 0 0 0 0 0 0 0 0 0 0 0 0 0 0 0 0 0 0 0 0 0 0 0 0 0 0 0 0 0 0 0 0 0 0 0 0 0 0 0 0 0 0 0 0
0 0 0 0 0 0 0 0 0 0 0 0 0 0 0 0 0 0 0 0 0 0 0 0 0 0 0 0 0 0 0 0 0 0 0 1 0 0 0 0 0 0 0 0 0 0 0 0 0 0 0 0 0 0
0 0 0 0 0 0 0 0 0 0 0 0 0 0 0 0 0 0 0 0 0 0 0 0 0 0 0 0 0 1 2 0 0 0 0 0 0 0 0 0 0 0 0 0 0 0 0 0 0 0 0 0 0 0
0 0 0 0 0 0 0 0 0 0 0 0 0 0 0 0 0 0 0 0 0 0 0 0 0 0 0 0 0 0 1 0 0 0 0 0 0 1 0 0 1 1 1 2 2 1 1 1 1 1 1 1 0 0
CIN
0 0 0 -2 -2 0 0 0 0 0 0 0 0 0 0 0 0 0 0 0 0 0 0 0 0 0 0 0 0 0 0 0 0 0 0 0 0 0 0 0 0 0 0 0 0 0 0 0 0 0 0 0 0 0
0 0 -2 -2 0 0 0 0 0 0 0 0 0 0 0 0 0 0 0 0 0 0 0 0 0 0 0 0 0 0 0 0 0 0 0 0 0 0 0 0 0 0 0 0 0 0 0 0 0 0 0 0 0 0
0 0 0 0 0 0 0 0 0 0 0 0 0 0 0 0 0 0 0 0 0 0 0 0 0 0 0 0 0 0 0 0 0 0 0 0 0 0 0 0 0 0 0 0 0 0 0 0 0 0 0 0 0 0
0 0 0 0 0 0 0 0 0 0 0 0 0 0 0 0 0 0 0 0 0 0 0 0 0 0 0 0 0 0 0 0 0 0 0 0 0 0 0 0 0 0 0 0 0 0 0 0 0 0 0 0 0 0
0 0 0 0 0 0 0 0 0 0 0 0 0 0 0 0 0 0 0 0 0 0 0 0 0 0 0 0 0 0 0 0 0 0 0 0 0 0 0 0 0 0 0 0 0 0 0 0 0 0 0 0 0 0
0 0 0 0 0 0 0 0 0 0 0 0 0 0 0 0 0 0 0 0 0 0 0 0 0 0 0 0 0 0 0 0 0 0 0 0 0 0 0 0 0 0 0 0 0 0 0 0 0 0 0 0 0 0
0 0 0 0 0 0 0 0 0 0 0 0 0 0 0 0 0 0 0 0 0 0 0 0 0 0 0 0 0 0 0 0 0 0 0 0 0 0 0 0 0 0 0 0 0 0 0 0 0 0 0 0 0 0
0 0 0 0 0 0 0 0 0 0 0 0 0 0 0 0 0 0 0 0 0 0 0 0 0 0 0 0 0 0 0 0 0 0 0 0 0 0 0 0 0 0 0 0 0 0 0 0 0 0 0 0 0 0
0 0 0 0 0 0 0 0 0 0 0 0 0 0 0 0 0 0 0 0 0 0 0 0 0 0 -3 0 0 0 0 0 0 0 0 0 0 0 0 0 0 0 0 0 0 0 0 0 0 0 0 0 0 0
0 0 0 0 0 0 0 0 0 0 0 0 0 0 0 0 0 0 0 0 0 0 0 0 0 0 0 -1 0 0 0 0 0 0 0 0 0 0 0 0 0 0 0 0 0 0 0 0 0 0 0 0 0 0
0 0 0 0 0 0 0 0 0 0 0 0 0 0 0 0 0 -4 0 0 0 0 0 0 0 0 0 0 0 0 0 0 0 0 0 0 0 0 0 0 0 0 0 0 0 0 0 0 0 0 0 0 0 0
0 0 0 0 0 0 0 0 0 0 0 0 0 0 0 0 -1 0 0 0 0 0 0 0 0 0 -4 -1 0 0 -3 0 0 0 0 0 0 0 0 0 0 0 0 0 0 0 0 0 0 0 0 0 0 0
-5 -3 0 0 0 0 0 0 0 0 0 0 0 0 0 0 0 0 0 0 0 0 0 -2 -1 0 -3 -1 0 -2 0 0 0 -3 -2 0 0 0 0 0 0 0 0 0 0 0 0 0 0 0 0 0 0 0
0 0 -1 0 0 0 0 0 0 0 0 0 0 0 0 0 0 0 0 0 0 0 0 0 0 0 0 0 0 0 0 0 -1 0 0 0 0 0 0 0 0 0 0 0 0 0 0 0 0 0 0 0 0 0
0 -1 -1 -2 0 0 0 0 0 0 0 0 0 0 0 0 0 0 0 -1 -6 0 0 0 0 0 0 0 0 0 0 0 0 0 0 0 0 0 0 0 0 0 0 0 0 0 0 0 0 0 0 0 0 0
0 0 0 0 -1 0 0 0 0 0 0 0 0 0 0 0 0 0 0 0 -7 0 0 0 0 0 0 0 0 0 0 0 0 0 0 0 0 0 0 0 0 0 0 0 0 0 0 0 0 0 0 0 0 0
0 0 0 0 -1 0 -2 0 0 0 0 0 0 0 0 0 0 0 0 0 -50 -2 0 -2 -1 0 0 0 0 0 0 0 0 0 0 0 0 0 0 0 0 0 0 0 0 0 0 0 0 0 0 0 0 0
0 -3 -4 0 -1 -1 0 0 0 0 0 0 0 0 0 0 0 0 0 0 -24 -6 -6 -1 -1 0 -1 -1 0 0 0 0 0 0 0 0 0 0 0 0 0 0 0 0 0 0 0 0 0 0 0 0 0 0
0 0 -2 -1 0 0 0 0 0 0 0 0 0 0 0 0 0 0 0 0 0 -15 -7 -4 -7 0 0 0 0 0 0 0 0 0 0 0 0 0 0 0 0 0 0 0 0 0 0 0 0 0 0 0 0 0
0 0 -10 -3 0 0 0 0 0 0 -9 -2 0 0 0 0 0 0 0 0 0 0 0 0 -2 0 -8 0 0 0 0 0 0 0 0 0 0 0 0 0 0 0 0 0 0 0 0 0 0 0 0 0 0 0
0 0 0 0 0 0 0 0 -5 0 0 0 0 0 0 0 0 0 0 0 0 0 0 0 0 0 0 0 0 0 -11 0 0 0 0 0 0 0 0 0 0 0 0 0 0 0 0 0 0 0 0 0 0 0
0 0 -2 -3 0 0 0 0 0 0 0 0 -4 0 0 0 0 0 0 0 0 0 0 0 0 0 0 0 0 -1 -2 -24 -5 0 0 0 0 0 0 0 0 0 0 0 0 0 0 0 0 0 0 0 0 0
0 0 0 0 0 0 0 0 0 0 0 0 0 -2 -5 -8 0 0 0 0 0 0 0 0 0 0 0 0 0 -13 -19 -16 0 0 0 0 0 0 0 0 0 0 0 0 0 0 0 0 0 0 0 0 0 0
0 0 0 0 0 0 -4 0 0 0 0 0 0 0 0 0 0 0 -2 0 0 0 0 0 0 0 0 0 0 0 0 0 0 0 0 0 0 0 0 0 0 0 0 0 0 0 0 0 0 0 0 0 0 0
0 0 0 0 0 -2 0 0 0 0 0 -1 0 0 0 -18 0 0 0 0 0 0 0 0 0 0 0 0 0 0 0 0 0 0 0 0 0 0 0 0 0 0 0 0 0 0 0 0 0 0 0 0 0 0
0 0 0 0 0 0 0 0 0 0 0 0 0 0 0 0 0 0 0 0 -12 -30 -13 0 0 0 0 0 0 0 0 0 0 0 0 0 0 0 0 0 0 0 0 0 0 0 0 0 0 0 0 0 0 0
0 0 0 0 0 0 0 -1 -2 0 0 0 -3 0 0 0 0 0 0 -14 -18 -43 0 0 0 0 0 0 0 0 0 0 0 0 0 0 0 0 0 0 0 0 0 0 0 0 0 0 0 0 0 0 0 0
0 0 0 0 0 0 0 -1 0 0 0 0 -1 0 0 0 -8 0 0 0 -1 0 0 0 0 0 0 0 0 0 0 0 0 0 0 0 0 0 0 0 0 0 0 0 0 0 0 0 0 0 0 0 0 0
0 0 0 0 0 0 0 0 0 0 0 -7 -5 -5 0 0 -1 -3 -19 0 0 0 0 0 0 0 0 0 0 0 0 0 0 0 0 0 0 0 0 0 0 0 0 0 0 0 0 0 0 0 0 0 0 0
0 0 0 0 0 0 0 0 0 0 0 0 0 0 0 0 0 0 0 0 0 0 0 0 0 0 0 0 0 0 0 0 0 0 0 0 0 0 0 0 0 0 0 0 0 0 0 0 0 0 0 0 0 0
0 0 0 0 0 0 0 0 0 0 0 0 0 0 0 0 0 0 0 0 0 0 0 0 0 0 0 0 0 0 0 0 0 0 0 0 0 0 0 0 0 0 0 0 0 0 0 0 0 0 0 0 0 0
0 0 0 0 0 0 0 0 0 0 0 0 0 0 0 0 0 0 0 0 0 0 0 0 0 0 0 0 0 0 0 0 0 0 0 0 0 0 0 0 0 0 0 0 0 0 0 0 0 0 0 0 0 0
0 0 0 -2 -2 0 0 0 -2 -1 0 0 0 0 0 0 0 0 0 0 0 0 0 0 0 0 0 0 0 0 0 0 0 0 0 0 0 0 0 0 0 0 0 0 0 0 0 0 0 0 0 0 0 0
Wind_Speed
3 3 4 4 3 2 3 5 6 7 8 10 10 11 11 11 10 11 13 15 16 16 15 16 17 17 17 18 21 16 18 20 18 20 20 22 24 22 24 22 21 18 21 23 21 25 29 20 22 25 25 28 30 31
7 5 2 0 1 3 4 5 6 8 9 9 9 10 11 10 8 8 10 13 11 13 15 13 11 13 14 16 16 14 17 17 15 17 20 21 23 22 22 26 18 22 18 19 18 23 18 21 20 20 22 25 28 30
8 7 6 4 3 3 5 7 8 9 9 9 9 10 11 11 10 8 9 11 9 14 15 15 16 15 14 16 14 17 18 14 15 15 16 19 24 20 23 24 23 20 20 20 21 18 18 18 18 20 22 25 27 28
7 6 6 6 5 5 6 7 8 10 10 10 11 11 11 12 11 9 10 13 11 11 18 19 15 15 15 15 14 14 11 12 13 15 18 19 24 20 25 24 23 20 21 19 21 17 15 19 19 20 23 26 26 26
7 7 6 6 6 6 6 7 7 8 9 9 10 11 11 11 11 9 9 11 12 13 17 16 13 15 15 15 14 11 10 13 16 19 21 22 20 21 23 25 27 19 20 21 22 17 20 20 17 21 24 24 24 23
5 7 7 6 5 5 6 7 7 8 9 9 9 9 10 10 11 13 14 15 15 14 14 15 15 16 16 14 15 15 15 16 17 17 20 20 18 19 24 24 23 18 16 14 17 13 15 13 17 20 22 22 22 21
3 4 5 5 5 5 6 6 6 7 8 8 8 8 10 11 11 13 15 14 16 13 16 16 17 17 15 15 17 17 18 20 19 18 20 20 19 19 21 25 23 17 14 13 10 11 16 14 21 20 20 21 20 20
4 4 3 3 5 5 5 6 7 8 8 8 8 9 10 10 10 11 13 14 12 12 15 18 19 18 16 18 18 18 19 20 20 20 21 21 21 21 25 23 21 14 12 13 13 15 16 15 19 19 19 19 19 18
5 5 4 4 5 4 5 7 8 9 9 9 9 10 11 12 13 13 15 15 13 13 17 18 19 20 13 17 16 18 19 23 21 23 23 20 21 22 22 20 15 10 10 10 11 14 14 17 19 19 18 18 16 15
5 6 6 6 4 6 7 8 10 11 11 11 11 12 12 13 14 14 15 14 15 16 15 17 14 18 12 14 16 16 18 20 23 22 18 23 27 24 21 17 14 7 6 6 12 16 16 18 18 18 17 15 13 12
2 4 5 4 5 8 9 11 12 12 11 12 13 13 13 14 14 14 14 14 14 15 14 14 12 11 12 14 14 14 17 17 24 22 19 25 26 21 13 10 9 6 6 8 14 15 15 14 15 15 14 13 12 12
9 4 1 4 6 9 11 13 14 13 14 13 12 12 14 15 15 15 15 15 15 15 13 11 10 10 11 11 13 12 17 16 24 13 21 25 21 15 10 6 5 6 7 10 12 14 14 14 14 14 13 13 14 14
12 8 3 2 6 9 11 11 11 12 13 14 16 17 17 17 18 18 17 16 16 13 11 11 10 10 12 12 13 13 16 19 16 19 22 21 16 11 6 5 5 7 8 10 12 13 14 14 14 14 15 15 16 16
9 7 6 1 5 8 11 12 13 15 15 18 19 21 21 19 19 18 16 16 17 13 8 7 9 11 12 11 12 15 16 16 20 22 22 19 10 5 4 4 6 6 7 9 10 12 13 14 15 16 16 17 17 17
11 10 7 3 3 6 10 12 14 15 15 17 18 21 22 21 21 19 20 20 18 10 7 9 12 12 12 14 14 15 16 18 18 19 17 16 6 3 4 5 5 6 7 8 9 11 12 13 14 15 16 16 17 17
5 3 4 4 3 5 8 10 14 15 17 19 20 20 21 23 24 24 24 22 19 13 13 16 15 16 16 15 16 16 16 17 18 16 17 10 6 4 4 5 6 6 6 7 9 10 11 12 14 15 15 15 15 15
5 5 1 2 2 4 9 13 14 15 17 19 22 22 22 23 24 23 21 21 18 18 21 20 20 20 16 18 19 15 19 20 18 18 11 8 5 4 4 5 5 5 6 7 8 10 10 12 13 14 14 14 15 15
7 6 7 3 4 7 10 11 9 11 18 18 23 25 25 26 27 28 25 22 20 22 23 24 22 22 22 22 22 20 19 18 16 12 8 8 6 5 4 4 4 5 5 7 9 10 11 12 13 14 14 15 15 15
7 7 6 5 6 7 7 9 9 13 12 18 21 27 27 27 25 27 30 31 28 25 24 25 27 27 27 26 25 24 22 17 14 12 11 9 7 6 5 4 3 4 4 8 9 11 12 14 14 14 15 16 16 17
8 9 9 7 7 7 6 10 9 12 16 15 20 26 27 31 31 29 31 30 28 29 29 31 29 25 23 22 24 25 23 20 14 13 12 10 9 6 4 3 3 2 2 6 6 9 11 14 14 15 16 16 17 18
7 7 8 9 9 6 8 11 12 12 13 14 14 15 28 28 28 26 27 31 32 29 32 35 36 36 29 27 27 26 22 20 19 18 16 13 8 6 3 4 3 2 1 4 7 11 13 16 16 16 16 16 17 18
11 5 10 8 10 9 8 7 10 13 13 14 19 15 17 20 25 25 23 25 29 35 39 39 39 40 41 37 34 31 28 20 20 21 18 12 7 5 3 2 1 2 3 4 8 13 15 14 15 16 17 17 18 19
11 10 11 12 9 7 11 8 10 11 12 13 15 20 17 18 21 17 20 20 25 36 38 40 40 40 42 41 39 35 29 26 26 23 20 18 14 9 6 3 3 3 7 4 3 5 13 11 15 16 17 16 18 19
12 12 12 12 9 12 10 11 10 13 14 13 16 17 18 19 21 22 20 18 32 37 39 41 40 40 41 40 39 41 38 31 29 29 26 25 25 18 11 6 6 7 12 12 5 3 7 12 12 14 16 17 18 19
10 10 12 13 12 9 9 12 11 12 14 14 15 18 19 12 13 14 12 17 30 32 34 37 39 39 40 41 39 39 40 38 38 37 33 28 28 22 17 14 13 13 12 14 13 5 10 6 11 13 16 17 18 19
11 10 11 12 11 10 10 14 12 12 11 15 19 18 14 12 11 9 8 13 23 23 21 20 24 29 34 35 37 37 37 36 37 40 39 33 30 28 23 19 17 22 14 16 15 8 9 11 13 15 17 18 18 18
14 14 11 7 11 13 13 10 8 10 12 13 14 18 14 11 7 7 18 22 23 21 20 19 19 20 23 25 26 27 29 29 35 39 39 38 36 31 27 25 15 22 13 13 14 10 10 14 15 17 16 13 18 19
12 14 10 8 11 12 15 14 11 11 13 12 11 12 12 10 9 13 19 21 23 25 26 26 24 24 26 27 27 28 29 29 31 35 37 40 40 36 31 28 25 13 12 10 15 16 14 10 12 14 15 19 16 15
13 11 11 12 13 13 12 14 13 11 10 11 12 13 13 11 14 17 24 29 30 29 29 30 30 28 30 32 33 34 34 32 32 39 44 45 42 43 38 35 27 18 17 20 18 19 17 15 13 12 15 16 12 8
11 6 10 13 12 14 12 10 14 16 19 17 16 19 21 18 20 26 31 33 32 31 31 30 30 30 30 30 33 33 31 31 32 36 42 48 48 42 37 36 30 22 19 22 24 25 23 23 21 21 18 16 13 9
11 8 11 11 14 14 12 14 16 17 21 24 20 16 18 20 19 24 30 30 31 31 32 32 31 30 32 32 32 32 33 29 27 32 38 42 43 42 40 37 31 24 20 21 22 23 23 24 22 21 18 16 14 12
10 10 11 14 16 14 17 17 18 16 16 17 16 20 27 25 21 20 24 27 27 30 31 32 34 35 32 32 32 33 34 36 36 38 38 39 40 39 37 34 30 24 20 20 21 22 23 24 24 24 23 20 18 15
15 11 10 13 16 17 17 17 18 17 13 12 14 14 13 12 14 16 20 24 28 28 28 29 31 32 33 35 35 35 34 34 36 37 36 35 35 33 31 29 27 24 21 21 22 22 23 25 26 25 25 23 21 19
Wind_Direction
72 84 88 90 84 75 38 26 19 357 359 354 331 323 311 307 296 272 269 273 267 270 282 285 280 273 272 271 272 280 286 288 290 288 293 296 297 297 302 308 308 303 310 312 314 317 319 341 341 338 342 346 349 351
64 63 55 349 281 280 298 310 314 340 342 338 330 322 325 329 312 294 274 279 285 271 274 288 300 301 295 285 280 275 290 292 287 293 292 298 296 303 305 304 309 308 308 316 312 317 335 346 347 352 353 351 352 352
55 58 52 32 358 320 294 288 291 299 304 309 305 301 311 325 316 294 287 283 290 272 276 279 279 297 309 302 293 280 286 296 295 303 301 300 296 308 300 302 308 312 318 312 312 322 326 335 348 352 354 354 354 356
38 35 37 36 19 356 344 326 307 297 291 297 293 296 295 296 307 298 287 286 287 284 272 273 292 293 306 304 302 296 294 304 304 305 300 300 297 307 303 306 306 309 317 313 314 322 329 331 340 349 351 353 355 357
37 28 15 10 16 11 359 350 341 331 314 309 311 301 293 292 294 305 302 299 294 281 278 276 291 299 293 290 303 308 303 296 298 297 298 297 303 306 307 307 304 311 307 304 308 317 318 327 343 347 346 349 353 356
30 29 22 16 3 344 327 331 332 327 325 322 324 324 319 315 306 289 284 291 298 284 291 284 291 290 290 291 296 301 302 300 300 300 299 301 308 307 302 308 314 315 320 323 317 332 339 347 347 347 347 349 351 355
348 1 15 18 3 347 348 351 334 324 321 323 330 335 329 324 318 292 286 291 293 296 284 280 283 284 289 292 293 296 295 293 297 300 298 301 305 303 304 302 313 320 329 332 344 349 335 338 337 345 349 350 355 358
283 297 320 339 336 347 349 343 345 336 328 326 323 317 315 328 330 323 313 315 309 297 292 280 281 278 290 285 286 296 292 293 295 296 299 298 302 301 302 303 310 317 324 328 334 335 337 346 346 346 349 351 351 354
270 270 277 298 301 324 320 323 319 319 318 314 320 311 320 317 317 314 303 310 315 306 285 284 276 278 294 289 295 294 295 289 298 293 294 299 296 296 305 309 311 312 317 328 340 342 345 342 345 346 349 352 354 1
257 263 271 278 285 293 305 309 305 303 295 295 303 318 318 323 302 311 318 313 307 302 302 291 297 286 297 294 292 294 297 291 293 297 305 296 293 296 302 307 314 308 323 342 335 332 338 341 345 350 354 3 11 14
211 260 264 268 279 290 296 296 296 296 295 302 304 304 305 298 316 323 318 317 317 308 308 299 291 296 299 296 294 296 297 301 293 297 297 300 305 312 322 315 321 330 337 340 340 348 350 356 0 7 13 21 29 36
125 120 214 270 285 293 295 295 295 294 297 300 307 307 306 305 308 304 304 305 307 305 309 307 287 296 306 309 310 306 300 304 294 315 302 301 311 322 338 354 1 359 359 356 356 2 8 14 20 28 39 50 63 67
126 122 117 293 291 294 296 300 306 305 299 300 298 293 295 296 289 287 287 295 293 305 307 302 289 293 305 312 313 310 303 298 313 302 301 305 319 330 357 7 6 4 5 5 10 13 24 29 37 46 53 62 68 72
119 116 117 47 305 299 296 296 294 295 297 290 286 279 281 281 282 284 284 295 297 302 311 315 299 299 309 309 322 311 309 311 300 298 300 313 323 349 5 18 21 21 15 19 24 34 42 48 52 60 68 73 75 78
133 127 113 85 347 313 305 302 299 299 299 292 290 282 277 279 282 287 287 292 294 294 300 301 299 301 298 297 305 310 314 307 305 304 317 327 4 41 55 41 35 27 34 36 47 55 60 60 63 69 75 78 81 83
80 23 314 101 28 337 325 317 309 304 300 292 287 287 285 281 279 280 280 283 287 279 283 285 286 288 284 291 291 290 303 308 316 323 325 343 8 37 43 40 31 35 43 57 61 69 71 72 74 76 80 83 86 88
13 32 27 67 15 352 328 312 312 305 299 293 286 281 284 285 281 284 286 284 281 271 272 276 272 273 282 280 280 293 293 303 323 332 341 346 27 50 39 30 35 44 64 75 77 81 80 82 81 85 87 91 92 96
351 39 102 64 4 341 332 326 330 320 300 294 286 280 280 281 278 275 277 284 281 273 265 267 275 267 268 271 276 287 297 308 319 331 346 342 355 9 21 38 43 60 81 84 91 92 93 101 104 104 100 101 99 103
32 28 50 79 0 357 356 339 328 323 311 305 292 283 281 281 281 277 273 271 271 271 272 267 266 263 263 265 272 280 287 293 307 323 332 338 348 2 13 20 34 74 90 105 107 110 113 121 115 110 108 110 111 114
22 37 58 48 13 23 12 345 345 326 316 308 298 286 282 277 277 277 273 270 270 266 262 258 262 271 270 275 276 279 282 287 293 302 311 324 340 4 19 10 18 69 76 98 99 106 113 124 124 121 121 122 122 129
357 14 24 15 14 13 8 354 339 340 340 325 311 292 284 283 279 277 275 271 266 264 263 258 258 260 270 279 283 286 287 282 282 290 295 302 317 349 7 336 338 312 302 112 124 132 138 144 137 134 131 131 133 135
332 40 358 4 353 360 351 345 341 336 341 336 326 331 318 298 286 279 278 273 268 262 258 257 258 258 260 265 269 277 280 282 285 281 286 298 315 337 30 317 293 244 265 152 142 147 151 143 140 140 141 138 136 137
334 344 344 350 354 355 353 354 333 329 321 321 319 318 324 319 312 308 287 277 273 263 258 255 257 259 258 260 259 265 271 273 272 272 277 280 288 305 328 348 293 262 272 256 181 150 154 144 148 147 146 138 140 143
330 330 334 341 344 346 358 354 350 339 332 319 313 299 302 306 312 313 313 307 275 266 259 255 256 256 255 257 258 252 256 263 267 265 266 268 274 281 291 308 297 287 277 277 257 213 160 157 150 150 151 149 150 151
338 335 335 330 343 348 336 334 327 328 331 334 328 313 308 319 316 314 308 314 288 272 260 254 252 253 254 256 259 257 253 255 257 257 259 264 267 273 281 288 290 288 280 274 271 213 171 178 163 161 160 160 160 159
330 334 333 342 345 336 338 336 335 331 330 326 316 314 317 312 309 307 321 307 284 286 280 272 266 261 259 261 259 258 259 258 256 254 254 259 263 266 270 275 280 279 277 272 269 251 189 179 175 172 171 169 167 164
320 325 331 337 352 348 346 342 341 342 343 346 346 331 326 319 311 327 302 291 278 280 276 285 278 276 272 269 269 268 270 271 261 257 258 259 260 264 267 267 256 279 275 263 266 247 198 186 182 180 178 176 175 174
319 328 315 335 333 330 329 333 327 306 303 317 326 326 338 343 331 327 301 296 289 282 275 271 277 279 275 272 274 273 273 273 273 267 262 258 258 260 262 266 268 266 267 252 263 261 254 234 202 191 186 183 180 178
319 326 328 320 317 323 329 328 322 314 322 328 323 317 316 323 324 317 296 281 282 280 274 272 274 281 279 274 272 271 273 273 274 264 258 256 255 254 256 258 263 262 266 266 263 262 252 252 248 214 192 186 191 203
313 313 313 318 317 319 319 322 323 327 325 318 309 305 306 308 311 299 288 283 278 275 273 273 277 279 279 279 277 277 278 277 277 274 263 254 253 256 255 254 258 259 260 261 259 259 257 255 259 258 256 256 253 233
315 296 304 302 305 310 310 319 324 322 316 310 307 302 301 307 309 298 287 280 277 277 276 273 273 276 277 279 280 280 281 288 287 286 274 262 257 254 252 253 254 253 251 252 252 255 253 251 252 254 251 247 243 238
312 298 294 298 304 305 317 313 308 304 308 309 316 313 305 306 305 304 293 282 278 277 276 276 275 274 277 277 279 282 281 281 282 282 274 263 256 251 250 250 250 248 245 245 248 253 251 250 251 253 254 251 249 242
332 326 318 319 323 321 319 319 321 316 310 304 304 306 307 305 312 309 295 293 284 278 280 280 279 279 279 277 278 282 287 289 285 280 271 259 254 250 248 248 247 245 242 243 247 250 250 249 251 253 254 254 254 254